Year,Month,Day,Hour,Minute,Value (Times are PST for temperature in C)
2018,08,23,00,00,16.10
2018,08,23,00,01,16.00
2018,08,23,00,02,16.00
2018,08,23,00,03,16.00
2018,08,23,00,04,16.00
2018,08,23,00,05,15.90
2018,08,23,00,06,15.90
2018,08,23,00,07,15.90
2018,08,23,00,08,15.90
2018,08,23,00,09,15.90
2018,08,23,00,10,15.80
2018,08,23,00,11,15.80
2018,08,23,00,12,15.80
2018,08,23,00,13,15.80
2018,08,23,00,14,15.80
2018,08,23,00,15,15.70
2018,08,23,00,16,15.70
2018,08,23,00,17,15.70
2018,08,23,00,18,15.70
2018,08,23,00,19,15.70
2018,08,23,00,20,15.60
2018,08,23,00,21,15.60
2018,08,23,00,22,15.60
2018,08,23,00,23,15.60
2018,08,23,00,24,15.60
2018,08,23,00,25,15.60
2018,08,23,00,26,15.60
2018,08,23,00,27,15.60
2018,08,23,00,28,15.60
2018,08,23,00,29,15.60
2018,08,23,00,30,15.60
2018,08,23,00,31,15.60
2018,08,23,00,32,15.60
2018,08,23,00,33,15.60
2018,08,23,00,34,15.60
2018,08,23,00,35,15.60
2018,08,23,00,36,15.50
2018,08,23,00,37,15.50
2018,08,23,00,38,15.50
2018,08,23,00,39,15.50
2018,08,23,00,40,15.50
2018,08,23,00,41,15.50
2018,08,23,00,42,15.50
2018,08,23,00,43,15.50
2018,08,23,00,44,15.50
2018,08,23,00,45,15.50
2018,08,23,00,46,15.50
2018,08,23,00,47,15.50
2018,08,23,00,48,15.50
2018,08,23,00,49,15.50
2018,08,23,00,50,15.50
2018,08,23,00,51,15.40
2018,08,23,00,52,15.40
2018,08,23,00,53,15.40
2018,08,23,00,54,15.40
2018,08,23,00,55,15.40
2018,08,23,00,56,15.40
2018,08,23,00,57,15.40
2018,08,23,00,58,15.40
2018,08,23,00,59,15.40
2018,08,23,01,00,15.40
2018,08,23,01,01,15.40
2018,08,23,01,02,15.40
2018,08,23,01,03,15.40
2018,08,23,01,04,15.40
2018,08,23,01,05,15.40
2018,08,23,01,06,15.40
2018,08,23,01,07,15.40
2018,08,23,01,08,15.40
2018,08,23,01,09,15.40
2018,08,23,01,10,15.40
2018,08,23,01,11,15.40
2018,08,23,01,12,15.40
2018,08,23,01,13,15.40
2018,08,23,01,14,15.30
2018,08,23,01,15,15.30
2018,08,23,01,16,15.30
2018,08,23,01,17,15.30
2018,08,23,01,18,15.30
2018,08,23,01,19,15.30
2018,08,23,01,20,15.40
2018,08,23,01,21,15.40
2018,08,23,01,22,15.40
2018,08,23,01,23,15.30
2018,08,23,01,24,15.30
2018,08,23,01,25,15.30
2018,08,23,01,26,15.30
2018,08,23,01,27,15.30
2018,08,23,01,28,15.30
2018,08,23,01,29,15.30
2018,08,23,01,30,15.30
2018,08,23,01,31,15.30
2018,08,23,01,32,15.30
2018,08,23,01,33,15.30
2018,08,23,01,34,15.30
2018,08,23,01,35,15.40
2018,08,23,01,36,15.40
2018,08,23,01,37,15.40
2018,08,23,01,38,15.40
2018,08,23,01,39,15.40
2018,08,23,01,40,15.40
2018,08,23,01,41,15.40
2018,08,23,01,42,15.40
2018,08,23,01,43,15.40
2018,08,23,01,44,15.40
2018,08,23,01,45,15.40
2018,08,23,01,46,15.40
2018,08,23,01,47,15.40
2018,08,23,01,48,15.30
2018,08,23,01,49,15.30
2018,08,23,01,50,15.30
2018,08,23,01,51,15.30
2018,08,23,01,52,15.30
2018,08,23,01,53,15.30
2018,08,23,01,54,15.30
2018,08,23,01,55,15.30
2018,08,23,01,56,15.30
2018,08,23,01,57,15.30
2018,08,23,01,58,15.30
2018,08,23,01,59,15.30
2018,08,23,02,00,15.30
2018,08,23,02,01,15.20
2018,08,23,02,02,15.20
2018,08,23,02,03,15.20
2018,08,23,02,04,15.20
2018,08,23,02,05,15.20
2018,08,23,02,06,15.20
2018,08,23,02,07,15.20
2018,08,23,02,08,15.20
2018,08,23,02,09,15.20
2018,08,23,02,10,15.20
2018,08,23,02,11,15.10
2018,08,23,02,12,15.10
2018,08,23,02,13,15.10
2018,08,23,02,14,15.10
2018,08,23,02,15,15.10
2018,08,23,02,16,15.10
2018,08,23,02,17,15.10
2018,08,23,02,18,15.10
2018,08,23,02,19,15.10
2018,08,23,02,20,15.10
2018,08,23,02,21,15.10
2018,08,23,02,22,15.10
2018,08,23,02,23,15.10
2018,08,23,02,24,15.10
2018,08,23,02,25,15.10
2018,08,23,02,26,15.10
2018,08,23,02,27,15.10
2018,08,23,02,28,15.10
2018,08,23,02,29,15.10
2018,08,23,02,30,15.10
2018,08,23,02,31,15.00
2018,08,23,02,32,15.00
2018,08,23,02,33,15.00
2018,08,23,02,34,15.00
2018,08,23,02,35,15.00
2018,08,23,02,36,15.00
2018,08,23,02,37,15.00
2018,08,23,02,38,15.00
2018,08,23,02,39,14.90
2018,08,23,02,40,14.90
2018,08,23,02,41,14.90
2018,08,23,02,42,14.90
2018,08,23,02,43,14.90
2018,08,23,02,44,14.90
2018,08,23,02,45,14.80
2018,08,23,02,46,14.80
2018,08,23,02,47,14.80
2018,08,23,02,48,14.80
2018,08,23,02,49,14.80
2018,08,23,02,50,14.80
2018,08,23,02,51,14.70
2018,08,23,02,52,14.70
2018,08,23,02,53,14.70
2018,08,23,02,54,14.70
2018,08,23,02,55,14.70
2018,08,23,02,56,14.70
2018,08,23,02,57,14.70
2018,08,23,02,58,14.70
2018,08,23,02,59,14.60
2018,08,23,03,00,14.60
2018,08,23,03,01,14.60
2018,08,23,03,02,14.60
2018,08,23,03,03,14.60
2018,08,23,03,04,14.60
2018,08,23,03,05,14.60
2018,08,23,03,06,14.50
2018,08,23,03,07,14.50
2018,08,23,03,08,14.50
2018,08,23,03,09,14.40
2018,08,23,03,10,14.40
2018,08,23,03,11,14.40
2018,08,23,03,12,14.30
2018,08,23,03,13,14.30
2018,08,23,03,14,14.30
2018,08,23,03,15,14.30
2018,08,23,03,16,14.30
2018,08,23,03,17,14.30
2018,08,23,03,18,14.20
2018,08,23,03,19,14.20
2018,08,23,03,20,14.20
2018,08,23,03,21,14.20
2018,08,23,03,22,14.20
2018,08,23,03,23,14.20
2018,08,23,03,24,14.20
2018,08,23,03,25,14.20
2018,08,23,03,26,14.20
2018,08,23,03,27,14.10
2018,08,23,03,28,14.10
2018,08,23,03,29,14.10
2018,08,23,03,30,14.10
2018,08,23,03,31,14.10
2018,08,23,03,32,14.10
2018,08,23,03,33,14.10
2018,08,23,03,34,14.10
2018,08,23,03,35,14.10
2018,08,23,03,36,14.10
2018,08,23,03,37,14.10
2018,08,23,03,38,14.10
2018,08,23,03,39,14.00
2018,08,23,03,40,14.00
2018,08,23,03,41,14.00
2018,08,23,03,42,14.00
2018,08,23,03,43,14.00
2018,08,23,03,44,14.00
2018,08,23,03,45,13.90
2018,08,23,03,46,13.90
2018,08,23,03,47,13.90
2018,08,23,03,48,13.80
2018,08,23,03,49,13.80
2018,08,23,03,50,13.70
2018,08,23,03,51,13.60
2018,08,23,03,52,13.60
2018,08,23,03,53,13.50
2018,08,23,03,54,13.50
2018,08,23,03,55,13.40
2018,08,23,03,56,13.40
2018,08,23,03,57,13.30
2018,08,23,03,58,13.30
2018,08,23,03,59,13.30
2018,08,23,04,00,13.20
2018,08,23,04,01,13.20
2018,08,23,04,02,13.20
2018,08,23,04,03,13.10
2018,08,23,04,04,13.10
2018,08,23,04,05,13.10
2018,08,23,04,06,13.00
2018,08,23,04,07,13.00
2018,08,23,04,08,12.90
2018,08,23,04,09,12.90
2018,08,23,04,10,12.90
2018,08,23,04,11,12.80
2018,08,23,04,12,12.80
2018,08,23,04,13,12.70
2018,08,23,04,14,12.70
2018,08,23,04,15,12.60
2018,08,23,04,16,12.60
2018,08,23,04,17,12.60
2018,08,23,04,18,12.60
2018,08,23,04,19,12.50
2018,08,23,04,20,12.50
2018,08,23,04,21,12.50
2018,08,23,04,22,12.40
2018,08,23,04,23,12.40
2018,08,23,04,24,12.40
2018,08,23,04,25,12.40
2018,08,23,04,26,12.40
2018,08,23,04,27,12.40
2018,08,23,04,28,12.40
2018,08,23,04,29,12.30
2018,08,23,04,30,12.30
2018,08,23,04,31,12.30
2018,08,23,04,32,12.30
2018,08,23,04,33,12.30
2018,08,23,04,34,12.30
2018,08,23,04,35,12.30
2018,08,23,04,36,12.40
2018,08,23,04,37,12.40
2018,08,23,04,38,12.40
2018,08,23,04,39,12.40
2018,08,23,04,40,12.40
2018,08,23,04,41,12.40
2018,08,23,04,42,12.40
2018,08,23,04,43,12.50
2018,08,23,04,44,12.50
2018,08,23,04,45,12.50
2018,08,23,04,46,12.50
2018,08,23,04,47,12.50
2018,08,23,04,48,12.50
2018,08,23,04,49,12.50
2018,08,23,04,50,12.50
2018,08,23,04,51,12.50
2018,08,23,04,52,12.60
2018,08,23,04,53,12.60
2018,08,23,04,54,12.60
2018,08,23,04,55,12.60
2018,08,23,04,56,12.60
2018,08,23,04,57,12.60
2018,08,23,04,58,12.60
2018,08,23,04,59,12.50
2018,08,23,05,00,12.50
2018,08,23,05,01,12.50
2018,08,23,05,02,12.50
2018,08,23,05,03,12.50
2018,08,23,05,04,12.50
2018,08,23,05,05,12.50
2018,08,23,05,06,12.50
2018,08,23,05,07,12.60
2018,08,23,05,08,12.60
2018,08,23,05,09,12.60
2018,08,23,05,10,12.70
2018,08,23,05,11,12.70
2018,08,23,05,12,12.70
2018,08,23,05,13,12.70
2018,08,23,05,14,12.70
2018,08,23,05,15,12.80
2018,08,23,05,16,12.80
2018,08,23,05,17,12.80
2018,08,23,05,18,12.70
2018,08,23,05,19,12.60
2018,08,23,05,20,12.60
2018,08,23,05,21,12.60
2018,08,23,05,22,12.60
2018,08,23,05,23,12.60
2018,08,23,05,24,12.50
2018,08,23,05,25,12.40
2018,08,23,05,26,12.40
2018,08,23,05,27,12.30
2018,08,23,05,28,12.30
2018,08,23,05,29,12.30
2018,08,23,05,30,12.30
2018,08,23,05,31,12.30
2018,08,23,05,32,12.30
2018,08,23,05,33,12.20
2018,08,23,05,34,12.30
2018,08,23,05,35,12.30
2018,08,23,05,36,12.30
2018,08,23,05,37,12.30
2018,08,23,05,38,12.30
2018,08,23,05,39,12.30
2018,08,23,05,40,12.30
2018,08,23,05,41,12.20
2018,08,23,05,42,12.20
2018,08,23,05,43,12.20
2018,08,23,05,44,12.20
2018,08,23,05,45,12.20
2018,08,23,05,46,12.30
2018,08,23,05,47,12.30
2018,08,23,05,48,12.30
2018,08,23,05,49,12.30
2018,08,23,05,50,12.40
2018,08,23,05,51,12.40
2018,08,23,05,52,12.40
2018,08,23,05,53,12.40
2018,08,23,05,54,12.40
2018,08,23,05,55,12.40
2018,08,23,05,56,12.40
2018,08,23,05,57,12.30
2018,08,23,05,58,12.30
2018,08,23,05,59,12.20
2018,08,23,06,00,12.20
2018,08,23,06,01,12.20
2018,08,23,06,02,12.20
2018,08,23,06,03,12.20
2018,08,23,06,04,12.20
2018,08,23,06,05,12.20
2018,08,23,06,06,12.20
2018,08,23,06,07,12.20
2018,08,23,06,08,12.10
2018,08,23,06,09,12.10
2018,08,23,06,10,12.10
2018,08,23,06,11,12.10
2018,08,23,06,12,12.00
2018,08,23,06,13,12.00
2018,08,23,06,14,11.90
2018,08,23,06,15,11.90
2018,08,23,06,16,11.90
2018,08,23,06,17,11.90
2018,08,23,06,18,11.90
2018,08,23,06,19,11.90
2018,08,23,06,20,11.90
2018,08,23,06,21,11.90
2018,08,23,06,22,11.90
2018,08,23,06,23,11.90
2018,08,23,06,24,11.80
2018,08,23,06,25,11.90
2018,08,23,06,26,11.90
2018,08,23,06,27,11.90
2018,08,23,06,28,11.80
2018,08,23,06,29,11.80
2018,08,23,06,30,11.80
2018,08,23,06,31,11.80
2018,08,23,06,32,11.80
2018,08,23,06,33,11.80
2018,08,23,06,34,11.80
2018,08,23,06,35,11.80
2018,08,23,06,36,11.80
2018,08,23,06,37,11.80
2018,08,23,06,38,11.80
2018,08,23,06,39,11.80
2018,08,23,06,40,11.80
2018,08,23,06,41,11.80
2018,08,23,06,42,11.80
2018,08,23,06,43,11.80
2018,08,23,06,44,11.80
2018,08,23,06,45,11.80
2018,08,23,06,46,11.70
2018,08,23,06,47,11.70
2018,08,23,06,48,11.70
2018,08,23,06,49,11.80
2018,08,23,06,50,11.80
2018,08,23,06,51,11.80
2018,08,23,06,52,11.80
2018,08,23,06,53,11.80
2018,08,23,06,54,11.80
2018,08,23,06,55,11.80
2018,08,23,06,56,11.80
2018,08,23,06,57,11.90
2018,08,23,06,58,11.90
2018,08,23,06,59,11.90
2018,08,23,07,00,11.90
2018,08,23,07,01,11.90
2018,08,23,07,02,11.90
2018,08,23,07,03,11.90
2018,08,23,07,04,11.90
2018,08,23,07,05,12.00
2018,08,23,07,06,12.00
2018,08,23,07,07,12.00
2018,08,23,07,08,12.00
2018,08,23,07,09,12.00
2018,08,23,07,10,12.00
2018,08,23,07,11,12.00
2018,08,23,07,12,12.00
2018,08,23,07,13,12.00
2018,08,23,07,14,12.10
2018,08,23,07,15,12.10
2018,08,23,07,16,12.10
2018,08,23,07,17,12.20
2018,08,23,07,18,12.20
2018,08,23,07,19,12.30
2018,08,23,07,20,12.30
2018,08,23,07,21,12.40
2018,08,23,07,22,12.40
2018,08,23,07,23,12.50
2018,08,23,07,24,12.50
2018,08,23,07,25,12.60
2018,08,23,07,26,12.70
2018,08,23,07,27,12.70
2018,08,23,07,28,12.70
2018,08,23,07,29,12.70
2018,08,23,07,30,12.70
2018,08,23,07,31,12.70
2018,08,23,07,32,12.70
2018,08,23,07,33,12.80
2018,08,23,07,34,12.80
2018,08,23,07,35,12.80
2018,08,23,07,36,12.80
2018,08,23,07,37,12.80
2018,08,23,07,38,12.80
2018,08,23,07,39,12.80
2018,08,23,07,40,12.80
2018,08,23,07,41,12.80
2018,08,23,07,42,12.80
2018,08,23,07,43,12.90
2018,08,23,07,44,12.90
2018,08,23,07,45,12.90
2018,08,23,07,46,13.00
2018,08,23,07,47,13.00
2018,08,23,07,48,13.10
2018,08,23,07,49,13.20
2018,08,23,07,50,13.20
2018,08,23,07,51,13.20
2018,08,23,07,52,13.30
2018,08,23,07,53,13.30
2018,08,23,07,54,13.40
2018,08,23,07,55,13.40
2018,08,23,07,56,13.50
2018,08,23,07,57,13.60
2018,08,23,07,58,13.60
2018,08,23,07,59,13.70
2018,08,23,08,00,13.80
2018,08,23,08,01,13.80
2018,08,23,08,02,13.90
2018,08,23,08,03,13.90
2018,08,23,08,04,13.90
2018,08,23,08,05,13.90
2018,08,23,08,06,14.00
2018,08,23,08,07,14.00
2018,08,23,08,08,14.00
2018,08,23,08,09,14.10
2018,08,23,08,10,14.10
2018,08,23,08,11,14.20
2018,08,23,08,12,14.30
2018,08,23,08,13,14.40
2018,08,23,08,14,14.50
2018,08,23,08,15,14.60
2018,08,23,08,16,14.70
2018,08,23,08,17,14.70
2018,08,23,08,18,14.80
2018,08,23,08,19,14.80
2018,08,23,08,20,14.90
2018,08,23,08,21,14.90
2018,08,23,08,22,15.00
2018,08,23,08,23,15.00
2018,08,23,08,24,15.00
2018,08,23,08,25,15.00
2018,08,23,08,26,15.00
2018,08,23,08,27,15.00
2018,08,23,08,28,15.00
2018,08,23,08,29,15.00
2018,08,23,08,30,15.00
2018,08,23,08,31,15.00
2018,08,23,08,32,15.10
2018,08,23,08,33,15.20
2018,08,23,08,34,15.20
2018,08,23,08,35,15.30
2018,08,23,08,36,15.40
2018,08,23,08,37,15.40
2018,08,23,08,38,15.50
2018,08,23,08,39,15.60
2018,08,23,08,40,15.70
2018,08,23,08,41,15.70
2018,08,23,08,42,15.70
2018,08,23,08,43,15.60
2018,08,23,08,44,15.50
2018,08,23,08,45,15.40
2018,08,23,08,46,15.40
2018,08,23,08,47,15.30
2018,08,23,08,48,15.30
2018,08,23,08,49,15.20
2018,08,23,08,50,15.10
2018,08,23,08,51,15.10
2018,08,23,08,52,15.00
2018,08,23,08,53,15.00
2018,08,23,08,54,15.00
2018,08,23,08,55,15.00
2018,08,23,08,56,15.00
2018,08,23,08,57,15.00
2018,08,23,08,58,15.00
2018,08,23,08,59,15.00
2018,08,23,09,00,15.00
2018,08,23,09,01,15.10
2018,08,23,09,02,15.10
2018,08,23,09,03,15.10
2018,08,23,09,04,15.10
2018,08,23,09,05,15.10
2018,08,23,09,06,15.10
2018,08,23,09,07,15.10
2018,08,23,09,08,15.10
2018,08,23,09,09,15.10
2018,08,23,09,10,15.10
2018,08,23,09,11,15.10
2018,08,23,09,12,15.10
2018,08,23,09,13,15.10
2018,08,23,09,14,15.00
2018,08,23,09,15,15.00
2018,08,23,09,16,14.90
2018,08,23,09,17,14.90
2018,08,23,09,18,14.90
2018,08,23,09,19,14.90
2018,08,23,09,20,14.90
2018,08,23,09,21,14.90
2018,08,23,09,22,14.90
2018,08,23,09,23,14.90
2018,08,23,09,24,15.00
2018,08,23,09,25,15.10
2018,08,23,09,26,15.10
2018,08,23,09,27,15.10
2018,08,23,09,28,15.10
2018,08,23,09,29,15.00
2018,08,23,09,30,15.00
2018,08,23,09,31,15.00
2018,08,23,09,32,14.90
2018,08,23,09,33,14.90
2018,08,23,09,34,14.90
2018,08,23,09,35,14.90
2018,08,23,09,36,14.90
2018,08,23,09,37,14.90
2018,08,23,09,38,15.00
2018,08,23,09,39,14.90
2018,08,23,09,40,15.00
2018,08,23,09,41,15.00
2018,08,23,09,42,15.00
2018,08,23,09,43,15.00
2018,08,23,09,44,15.00
2018,08,23,09,45,15.10
2018,08,23,09,46,15.10
2018,08,23,09,47,15.20
2018,08,23,09,48,15.20
2018,08,23,09,49,15.20
2018,08,23,09,50,15.20
2018,08,23,09,51,15.10
2018,08,23,09,52,15.20
2018,08,23,09,53,15.10
2018,08,23,09,54,15.10
2018,08,23,09,55,15.10
2018,08,23,09,56,15.20
2018,08,23,09,57,15.20
2018,08,23,09,58,15.30
2018,08,23,09,59,15.30
2018,08,23,10,00,15.30
2018,08,23,10,01,15.30
2018,08,23,10,02,15.30
2018,08,23,10,03,15.30
2018,08,23,10,04,15.30
2018,08,23,10,05,15.30
2018,08,23,10,06,15.20
2018,08,23,10,07,15.20
2018,08,23,10,08,15.20
2018,08,23,10,09,15.10
2018,08,23,10,10,15.10
2018,08,23,10,11,15.10
2018,08,23,10,12,15.10
2018,08,23,10,13,15.10
2018,08,23,10,14,15.10
2018,08,23,10,15,15.10
2018,08,23,10,16,15.20
2018,08,23,10,17,15.20
2018,08,23,10,18,15.20
2018,08,23,10,19,15.30
2018,08,23,10,20,15.40
2018,08,23,10,21,15.50
2018,08,23,10,22,15.50
2018,08,23,10,23,15.60
2018,08,23,10,24,15.50
2018,08,23,10,25,15.50
2018,08,23,10,26,15.40
2018,08,23,10,27,15.40
2018,08,23,10,28,15.40
2018,08,23,10,29,15.50
2018,08,23,10,30,15.60
2018,08,23,10,31,15.80
2018,08,23,10,32,15.80
2018,08,23,10,33,15.80
2018,08,23,10,34,15.80
2018,08,23,10,35,15.60
2018,08,23,10,36,15.60
2018,08,23,10,37,15.50
2018,08,23,10,38,15.40
2018,08,23,10,39,15.40
2018,08,23,10,40,15.30
2018,08,23,10,41,15.20
2018,08,23,10,42,15.20
2018,08,23,10,43,15.20
2018,08,23,10,44,15.20
2018,08,23,10,45,15.20
2018,08,23,10,46,15.20
2018,08,23,10,47,15.20
2018,08,23,10,48,15.10
2018,08,23,10,49,15.10
2018,08,23,10,50,15.10
2018,08,23,10,51,15.20
2018,08,23,10,52,15.20
2018,08,23,10,53,15.10
2018,08,23,10,54,15.20
2018,08,23,10,55,15.20
2018,08,23,10,56,15.20
2018,08,23,10,57,15.20
2018,08,23,10,58,15.20
2018,08,23,10,59,15.20
2018,08,23,11,00,15.20
2018,08,23,11,01,15.10
2018,08,23,11,02,15.10
2018,08,23,11,03,15.10
2018,08,23,11,04,15.10
2018,08,23,11,05,15.10
2018,08,23,11,06,15.10
2018,08,23,11,07,15.10
2018,08,23,11,08,15.00
2018,08,23,11,09,15.00
2018,08,23,11,10,15.00
2018,08,23,11,11,15.10
2018,08,23,11,12,15.10
2018,08,23,11,13,15.20
2018,08,23,11,14,15.20
2018,08,23,11,15,15.20
2018,08,23,11,16,15.20
2018,08,23,11,17,15.30
2018,08,23,11,18,15.30
2018,08,23,11,19,15.30
2018,08,23,11,20,15.40
2018,08,23,11,21,15.40
2018,08,23,11,22,15.30
2018,08,23,11,23,15.30
2018,08,23,11,24,15.30
2018,08,23,11,25,15.30
2018,08,23,11,26,15.30
2018,08,23,11,27,15.30
2018,08,23,11,28,15.40
2018,08,23,11,29,15.40
2018,08,23,11,30,15.40
2018,08,23,11,31,15.40
2018,08,23,11,32,15.40
2018,08,23,11,33,15.40
2018,08,23,11,34,15.40
2018,08,23,11,35,15.40
2018,08,23,11,36,15.40
2018,08,23,11,37,15.50
2018,08,23,11,38,15.50
2018,08,23,11,39,15.60
2018,08,23,11,40,15.70
2018,08,23,11,41,15.70
2018,08,23,11,42,15.80
2018,08,23,11,43,15.80
2018,08,23,11,44,15.80
2018,08,23,11,45,15.80
2018,08,23,11,46,15.80
2018,08,23,11,47,15.70
2018,08,23,11,48,15.70
2018,08,23,11,49,15.60
2018,08,23,11,50,15.60
2018,08,23,11,51,15.60
2018,08,23,11,52,15.60
2018,08,23,11,53,15.70
2018,08,23,11,54,15.70
2018,08,23,11,55,15.80
2018,08,23,11,56,15.80
2018,08,23,11,57,15.90
2018,08,23,11,58,15.90
2018,08,23,11,59,16.00
2018,08,23,12,00,16.00
2018,08,23,12,01,15.90
2018,08,23,12,02,15.90
2018,08,23,12,03,15.80
2018,08,23,12,04,15.70
2018,08,23,12,05,15.60
2018,08,23,12,06,15.60
2018,08,23,12,07,15.60
2018,08,23,12,08,15.60
2018,08,23,12,09,15.70
2018,08,23,12,10,15.80
2018,08,23,12,11,15.90
2018,08,23,12,12,15.90
2018,08,23,12,13,15.90
2018,08,23,12,14,15.90
2018,08,23,12,15,15.90
2018,08,23,12,16,15.90
2018,08,23,12,17,15.80
2018,08,23,12,18,15.80
2018,08,23,12,19,15.80
2018,08,23,12,20,15.80
2018,08,23,12,21,15.80
2018,08,23,12,22,15.80
2018,08,23,12,23,15.80
2018,08,23,12,24,15.80
2018,08,23,12,25,15.80
2018,08,23,12,26,15.80
2018,08,23,12,27,15.80
2018,08,23,12,28,15.90
2018,08,23,12,29,16.00
2018,08,23,12,30,16.00
2018,08,23,12,31,16.00
2018,08,23,12,32,16.00
2018,08,23,12,33,16.00
2018,08,23,12,34,16.00
2018,08,23,12,35,16.00
2018,08,23,12,36,16.10
2018,08,23,12,37,16.00
2018,08,23,12,38,16.00
2018,08,23,12,39,16.00
2018,08,23,12,40,16.10
2018,08,23,12,41,16.10
2018,08,23,12,42,16.10
2018,08,23,12,43,16.10
2018,08,23,12,44,16.10
2018,08,23,12,45,16.20
2018,08,23,12,46,16.10
2018,08,23,12,47,16.00
2018,08,23,12,48,16.00
2018,08,23,12,49,16.00
2018,08,23,12,50,16.00
2018,08,23,12,51,16.10
2018,08,23,12,52,16.10
2018,08,23,12,53,16.20
2018,08,23,12,54,16.20
2018,08,23,12,55,16.20
2018,08,23,12,56,16.30
2018,08,23,12,57,16.30
2018,08,23,12,58,16.40
2018,08,23,12,59,16.50
2018,08,23,13,00,16.50
2018,08,23,13,01,16.50
2018,08,23,13,02,16.40
2018,08,23,13,03,16.50
2018,08,23,13,04,16.50
2018,08,23,13,05,16.50
2018,08,23,13,06,16.50
2018,08,23,13,07,16.50
2018,08,23,13,08,16.60
2018,08,23,13,09,16.50
2018,08,23,13,10,16.40
2018,08,23,13,11,16.50
2018,08,23,13,12,16.50
2018,08,23,13,13,16.40
2018,08,23,13,14,16.30
2018,08,23,13,15,16.30
2018,08,23,13,16,16.20
2018,08,23,13,17,16.20
2018,08,23,13,18,16.20
2018,08,23,13,19,16.20
2018,08,23,13,20,16.20
2018,08,23,13,21,16.20
2018,08,23,13,22,16.30
2018,08,23,13,23,16.40
2018,08,23,13,24,16.40
2018,08,23,13,25,16.30
2018,08,23,13,26,16.40
2018,08,23,13,27,16.40
2018,08,23,13,28,16.40
2018,08,23,13,29,16.40
2018,08,23,13,30,16.50
2018,08,23,13,31,16.50
2018,08,23,13,32,16.60
2018,08,23,13,33,16.60
2018,08,23,13,34,16.80
2018,08,23,13,35,16.80
2018,08,23,13,36,16.90
2018,08,23,13,37,16.90
2018,08,23,13,38,16.90
2018,08,23,13,39,17.00
2018,08,23,13,40,17.10
2018,08,23,13,41,17.10
2018,08,23,13,42,17.10
2018,08,23,13,43,17.10
2018,08,23,13,44,16.90
2018,08,23,13,45,16.80
2018,08,23,13,46,16.80
2018,08,23,13,47,16.80
2018,08,23,13,48,16.80
2018,08,23,13,49,16.80
2018,08,23,13,50,16.80
2018,08,23,13,51,16.80
2018,08,23,13,52,16.80
2018,08,23,13,53,16.80
2018,08,23,13,54,16.80
2018,08,23,13,55,16.90
2018,08,23,13,56,16.90
2018,08,23,13,57,16.90
2018,08,23,13,58,16.90
2018,08,23,13,59,16.90
2018,08,23,14,00,16.90
2018,08,23,14,01,17.00
2018,08,23,14,02,17.00
2018,08,23,14,03,16.90
2018,08,23,14,04,16.90
2018,08,23,14,05,16.90
2018,08,23,14,06,16.80
2018,08,23,14,07,16.80
2018,08,23,14,08,16.80
2018,08,23,14,09,16.80
2018,08,23,14,10,16.80
2018,08,23,14,11,17.00
2018,08,23,14,12,17.10
2018,08,23,14,13,17.20
2018,08,23,14,14,17.20
2018,08,23,14,15,17.20
2018,08,23,14,16,17.20
2018,08,23,14,17,17.20
2018,08,23,14,18,17.30
2018,08,23,14,19,17.30
2018,08,23,14,20,17.30
2018,08,23,14,21,17.30
2018,08,23,14,22,17.30
2018,08,23,14,23,17.30
2018,08,23,14,24,17.20
2018,08,23,14,25,17.10
2018,08,23,14,26,17.00
2018,08,23,14,27,16.90
2018,08,23,14,28,16.80
2018,08,23,14,29,16.90
2018,08,23,14,30,16.90
2018,08,23,14,31,16.90
2018,08,23,14,32,17.00
2018,08,23,14,33,16.90
2018,08,23,14,34,16.90
2018,08,23,14,35,16.90
2018,08,23,14,36,17.00
2018,08,23,14,37,17.00
2018,08,23,14,38,17.00
2018,08,23,14,39,17.00
2018,08,23,14,40,17.10
2018,08,23,14,41,17.20
2018,08,23,14,42,17.20
2018,08,23,14,43,17.10
2018,08,23,14,44,17.10
2018,08,23,14,45,17.00
2018,08,23,14,46,16.90
2018,08,23,14,47,16.90
2018,08,23,14,48,16.90
2018,08,23,14,49,16.80
2018,08,23,14,50,16.80
2018,08,23,14,51,16.80
2018,08,23,14,52,16.90
2018,08,23,14,53,16.90
2018,08,23,14,54,16.90
2018,08,23,14,55,16.90
2018,08,23,14,56,17.00
2018,08,23,14,57,17.00
2018,08,23,14,58,17.00
2018,08,23,14,59,17.00
2018,08,23,15,00,17.00
2018,08,23,15,01,17.20
2018,08,23,15,02,17.20
2018,08,23,15,03,17.20
2018,08,23,15,04,17.10
2018,08,23,15,05,17.10
2018,08,23,15,06,17.10
2018,08,23,15,07,17.10
2018,08,23,15,08,17.10
2018,08,23,15,09,17.20
2018,08,23,15,10,17.20
2018,08,23,15,11,17.20
2018,08,23,15,12,17.30
2018,08,23,15,13,17.30
2018,08,23,15,14,17.30
2018,08,23,15,15,17.40
2018,08,23,15,16,17.30
2018,08,23,15,17,17.40
2018,08,23,15,18,17.50
2018,08,23,15,19,17.50
2018,08,23,15,20,17.40
2018,08,23,15,21,17.30
2018,08,23,15,22,17.30
2018,08,23,15,23,17.20
2018,08,23,15,24,17.20
2018,08,23,15,25,17.10
2018,08,23,15,26,17.10
2018,08,23,15,27,17.20
2018,08,23,15,28,17.30
2018,08,23,15,29,17.40
2018,08,23,15,30,17.50
2018,08,23,15,31,17.60
2018,08,23,15,32,17.60
2018,08,23,15,33,17.40
2018,08,23,15,34,17.30
2018,08,23,15,35,17.30
2018,08,23,15,36,17.30
2018,08,23,15,37,17.30
2018,08,23,15,38,17.30
2018,08,23,15,39,17.20
2018,08,23,15,40,17.10
2018,08,23,15,41,17.10
2018,08,23,15,42,17.10
2018,08,23,15,43,17.10
2018,08,23,15,44,17.20
2018,08,23,15,45,17.30
2018,08,23,15,46,17.30
2018,08,23,15,47,17.20
2018,08,23,15,48,17.20
2018,08,23,15,49,17.20
2018,08,23,15,50,17.20
2018,08,23,15,51,17.20
2018,08,23,15,52,17.20
2018,08,23,15,53,17.30
2018,08,23,15,54,17.30
2018,08,23,15,55,17.20
2018,08,23,15,56,17.30
2018,08,23,15,57,17.30
2018,08,23,15,58,17.30
2018,08,23,15,59,17.30
2018,08,23,16,00,17.30
2018,08,23,16,01,17.30
2018,08,23,16,02,17.30
2018,08,23,16,03,17.30
2018,08,23,16,04,17.30
2018,08,23,16,05,17.20
2018,08,23,16,06,17.20
2018,08,23,16,07,17.10
2018,08,23,16,08,17.20
2018,08,23,16,09,17.20
2018,08,23,16,10,17.30
2018,08,23,16,11,17.40
2018,08,23,16,12,17.40
2018,08,23,16,13,17.40
2018,08,23,16,14,17.20
2018,08,23,16,15,17.10
2018,08,23,16,16,17.00
2018,08,23,16,17,16.90
2018,08,23,16,18,17.00
2018,08,23,16,19,17.10
2018,08,23,16,20,17.20
2018,08,23,16,21,17.10
2018,08,23,16,22,17.10
2018,08,23,16,23,17.10
2018,08,23,16,24,17.10
2018,08,23,16,25,17.10
2018,08,23,16,26,17.00
2018,08,23,16,27,17.10
2018,08,23,16,28,17.10
2018,08,23,16,29,17.20
2018,08,23,16,30,17.20
2018,08,23,16,31,17.20
2018,08,23,16,32,17.20
2018,08,23,16,33,17.20
2018,08,23,16,34,17.10
2018,08,23,16,35,17.10
2018,08,23,16,36,17.00
2018,08,23,16,37,16.90
2018,08,23,16,38,16.90
2018,08,23,16,39,16.90
2018,08,23,16,40,16.90
2018,08,23,16,41,16.80
2018,08,23,16,42,16.90
2018,08,23,16,43,16.90
2018,08,23,16,44,16.90
2018,08,23,16,45,16.90
2018,08,23,16,46,16.90
2018,08,23,16,47,16.80
2018,08,23,16,48,16.80
2018,08,23,16,49,16.80
2018,08,23,16,50,16.90
2018,08,23,16,51,16.90
2018,08,23,16,52,16.90
2018,08,23,16,53,16.90
2018,08,23,16,54,16.80
2018,08,23,16,55,16.90
2018,08,23,16,56,17.00
2018,08,23,16,57,17.00
2018,08,23,16,58,17.10
2018,08,23,16,59,17.10
2018,08,23,17,00,17.10
2018,08,23,17,01,17.10
2018,08,23,17,02,17.00
2018,08,23,17,03,16.90
2018,08,23,17,04,17.00
2018,08,23,17,05,17.00
2018,08,23,17,06,17.00
2018,08,23,17,07,17.00
2018,08,23,17,08,17.00
2018,08,23,17,09,17.00
2018,08,23,17,10,17.00
2018,08,23,17,11,17.00
2018,08,23,17,12,16.90
2018,08,23,17,13,16.90
2018,08,23,17,14,16.80
2018,08,23,17,15,16.90
2018,08,23,17,16,16.90
2018,08,23,17,17,16.90
2018,08,23,17,18,16.90
2018,08,23,17,19,16.90